Weather History for West Plains, MO

Change the Weather History Date:

Wednesday, February 27, 2013

  Actual Average Record
Temperature  
Mean Temperature 35 °F 41 °F  
Max Temperature 37 °F 53 °F 77 °F (1976)
Min Temperature 32 °F 30 °F 12 °F (2002)
Degree Days  
Heating Degree Days 30 24  
Month to date heating degree days 734 737  
Since 1 July heating degree days 3280 3441  
Cooling Degree Days 0 0  
Month to date cooling degree days 0 0  
Year to date cooling degree days 0 0  
Moisture  
Dew Point 26 °F    
Average Humidity 77    
Maximum Humidity 85    
Minimum Humidity 69    
Precipitation  
Precipitation 0.01 in 0.10 in 1.71 in (1997)
Month to date precipitation 3.94 2.74  
Year to date precipitation 7.32 5.46  
Sea Level Pressure  
Sea Level Pressure 29.90 in    
Wind  
Wind Speed 12 mph (WNW)    
Max Wind Speed 20 mph    
Max Gust Speed 28 mph    
Visibility 9 miles    
Events Snow    
T = Trace of Precipitation, MM = Missing Value Source: NWS Daily Summary

Daily Weather History Graph

Daily Weather History Graph

Search for Another Location

Airport:

Trip Planner

Search our weather history database for the weather conditions in past years. The results will help you decide how hot, cold, wet, or windy it might be!

Date:

Astronomy

Feb. 27, 2013 Rise Set
Actual Time 6:40 AM CST 6:00 PM CST
Civil Twilight 6:14 AM CST 6:26 PM CST
Nautical Twilight 5:44 AM CST 6:56 PM CST
Astronomical Twilight 5:14 AM CST 7:26 PM CST
Moon 8:16 PM CST (2/27) 7:20 AM CST (2/27)
Length of Visible Light 12h 11m
Length of Day
11h 19m
Waning Gibbous, 96% of the Moon is Illuminated
Feb 27
Waning Gibbous
Mar 4
Last Quarter
Mar 11
New
Mar 19
First Quarter
Mar 27
Full

Hourly Weather History & Observations

Time (CST) Temp. Windchill Dew Point Humidity Pressure Visibility Wind Dir Wind Speed Gust Speed Precip Events Conditions
12:53 AM 33.1 °F 24.4 °F 28.0 °F 82% 29.79 in 10.0 mi WNW 11.5 mph 17.3 mph N/A   Overcast
1:53 AM 33.1 °F 24.4 °F 28.0 °F 82% 29.80 in 10.0 mi WNW 11.5 mph - N/A   Overcast
2:02 AM 33.8 °F 23.9 °F 26.6 °F 75% 29.78 in 10.0 mi West 15.0 mph 19.6 mph N/A   Overcast
2:53 AM 32.0 °F 24.8 °F 28.0 °F 85% 29.81 in 10.0 mi WNW 8.1 mph 17.3 mph N/A   Overcast
3:28 AM 33.8 °F 25.8 °F 26.6 °F 75% 29.79 in 10.0 mi WNW 10.4 mph 18.4 mph N/A   Overcast
3:53 AM 32.0 °F 23.6 °F 27.0 °F 82% 29.81 in 10.0 mi WNW 10.4 mph - N/A   Overcast
4:53 AM 33.1 °F 23.9 °F 25.0 °F 72% 29.84 in 10.0 mi West 12.7 mph 18.4 mph N/A   Overcast
5:53 AM 32.0 °F 24.2 °F 26.1 °F 79% 29.85 in 10.0 mi West 9.2 mph - N/A   Overcast
6:53 AM 32.0 °F 23.6 °F 26.1 °F 79% 29.86 in 10.0 mi West 10.4 mph - N/A   Overcast
7:53 AM 33.1 °F 23.0 °F 26.1 °F 75% 29.87 in 10.0 mi West 15.0 mph 19.6 mph 0.01 in   Overcast
8:53 AM 33.1 °F 25.5 °F 26.1 °F 75% 29.88 in 10.0 mi West 9.2 mph - N/A   Overcast
9:31 AM 33.8 °F 24.8 °F 26.6 °F 75% 29.86 in 8.0 mi West 12.7 mph 20.7 mph N/A   Overcast
9:53 AM 33.1 °F 23.9 °F 26.1 °F 75% 29.90 in 8.0 mi West 12.7 mph 18.4 mph N/A   Overcast
10:53 AM 33.1 °F 25.5 °F 27.0 °F 78% 29.92 in 4.0 mi WNW 9.2 mph 20.7 mph 0.00 in Snow Light Snow
11:29 AM 33.8 °F 23.9 °F 26.6 °F 75% 29.89 in 6.0 mi West 15.0 mph 21.9 mph 0.00 in   Haze
11:53 AM 34.0 °F 25.0 °F 27.0 °F 75% 29.91 in 6.0 mi West 12.7 mph 19.6 mph 0.00 in   Haze
12:53 PM 35.1 °F 26.4 °F 27.0 °F 72% 29.90 in 6.0 mi West 12.7 mph 23.0 mph N/A   Haze
1:53 PM 36.0 °F 28.5 °F 27.0 °F 70% 29.90 in 9.0 mi West 10.4 mph 23.0 mph 0.00 in   Overcast
2:53 PM 36.0 °F 25.6 °F 27.0 °F 70% 29.91 in 9.0 mi West 18.4 mph 23.0 mph N/A   Overcast
3:53 PM 35.1 °F 24.8 °F 26.1 °F 70% 29.92 in 8.0 mi West 17.3 mph 24.2 mph N/A   Overcast
4:53 PM 34.0 °F 25.0 °F 25.0 °F 70% 29.94 in 8.0 mi West 12.7 mph 25.3 mph N/A   Overcast
5:53 PM 33.1 °F 24.9 °F 24.1 °F 70% 29.96 in 9.0 mi West 10.4 mph 21.9 mph N/A   Overcast
6:53 PM 33.1 °F 23.0 °F 24.1 °F 70% 29.98 in 10.0 mi WNW 15.0 mph 20.7 mph N/A   Overcast
7:53 PM 32.0 °F 23.0 °F 24.1 °F 73% 29.98 in 10.0 mi West 11.5 mph 19.6 mph N/A   Overcast
8:53 PM 32.0 °F 23.6 °F 24.1 °F 73% 29.99 in 10.0 mi WNW 10.4 mph - N/A   Overcast
9:53 PM 32.0 °F 23.6 °F 24.1 °F 73% 29.99 in 10.0 mi WNW 10.4 mph 18.4 mph N/A   Overcast
10:03 PM 32.0 °F 23.6 °F 24.8 °F 75% 29.96 in 10.0 mi WNW 10.4 mph 19.6 mph N/A   Overcast
10:13 PM 32.0 °F 22.5 °F 24.8 °F 75% 29.96 in 10.0 mi WNW 12.7 mph 19.6 mph N/A   Overcast
10:53 PM 32.0 °F 21.2 °F 24.1 °F 73% 29.99 in 10.0 mi WNW 16.1 mph 27.6 mph N/A   Overcast
11:53 PM 32.0 °F 23.6 °F 21.9 °F 66% 29.98 in 10.0 mi WNW 10.4 mph 17.3 mph N/A   Overcast